Date,Time,Wetness (Wet Dry or Ice),Wind Speed (m/s),Temperature (C),Humidity (%),Pressure (mb),Radiation (W/m^2)
2019-05-22,02:45:00,DRY,3.00,9.90,13.5,773.00,1.7
2019-05-22,02:50:00,DRY,3.07,9.90,12.3,773.00,1.4
2019-05-22,02:55:00,DRY,2.75,9.70,13.5,773.00,0.5
2019-05-22,03:00:00,DRY,3.10,10.03,16.3,773.00,1.1
2019-05-22,03:05:00,DRY,3.30,10.10,14.0,773.00,1.6
2019-05-22,03:10:00,DRY,2.40,9.57,14.0,773.00,1.5
2019-05-22,03:15:00,DRY,2.80,10.30,12.5,773.00,1.9
2019-05-22,03:20:00,DRY,3.03,10.97,9.3,773.00,1.1
2019-05-22,03:25:00,DRY,1.85,10.90,11.5,773.00,1.5
2019-05-22,03:30:00,DRY,2.33,10.70,11.3,772.67,1.2
2019-05-22,03:35:00,DRY,2.50,10.85,10.5,773.00,0.6
2019-05-22,03:40:00,DRY,1.83,10.57,13.3,773.00,1.7
2019-05-22,03:45:00,DRY,1.75,10.00,14.0,773.00,0.9
2019-05-22,03:50:00,DRY,1.53,10.17,14.0,773.00,0.9
2019-05-22,03:55:00,DRY,1.80,10.15,13.5,772.00,1.3
2019-05-22,04:00:00,DRY,2.17,10.33,11.7,772.33,1.3
2019-05-22,04:05:00,DRY,3.30,9.90,13.5,773.00,2.0
2019-05-22,04:10:00,DRY,2.47,9.43,12.7,772.67,2.2
2019-05-22,04:15:00,DRY,2.90,9.30,13.0,773.00,1.3
2019-05-22,04:20:00,DRY,3.40,9.43,13.0,772.33,1.0
2019-05-22,04:25:00,DRY,3.30,9.45,13.5,772.50,1.6
2019-05-22,04:30:00,DRY,3.93,9.40,15.0,772.00,1.2
2019-05-22,04:35:00,DRY,3.30,9.50,15.0,772.00,1.7
2019-05-22,04:40:00,DRY,3.63,9.50,14.7,772.00,1.4
2019-05-22,04:45:00,DRY,3.85,9.45,15.5,772.00,1.2
2019-05-22,04:50:00,DRY,3.73,9.50,14.3,772.00,1.2
2019-05-22,04:55:00,DRY,4.70,9.70,15.0,772.00,1.1
2019-05-22,05:00:00,DRY,4.53,9.77,14.0,772.00,1.4
2019-05-22,05:05:00,DRY,2.90,9.80,12.5,772.00,0.4
2019-05-22,05:10:00,DRY,3.83,9.73,13.3,772.00,1.2
2019-05-22,05:15:00,DRY,4.15,9.80,13.0,772.00,0.7
2019-05-22,05:20:00,DRY,3.57,9.97,10.3,772.00,1.3
2019-05-22,05:25:00,DRY,3.85,10.00,9.0,772.50,1.1
2019-05-22,05:30:00,DRY,4.07,10.07,8.7,772.00,1.5
2019-05-22,05:35:00,DRY,5.00,10.10,7.5,772.00,1.2
2019-05-22,05:40:00,DRY,4.87,9.97,7.0,772.33,1.2
2019-05-22,05:45:00,DRY,5.00,10.10,6.5,772.50,1.4
2019-05-22,05:50:00,DRY,6.03,9.97,6.3,772.33,0.7
2019-05-22,05:55:00,DRY,4.70,9.70,7.0,772.50,1.4
2019-05-22,06:00:00,DRY,4.73,9.67,7.0,773.00,1.5
2019-05-22,06:05:00,DRY,4.95,9.75,6.0,772.50,2.0
2019-05-22,06:10:00,DRY,4.77,9.77,6.3,772.67,3.9
2019-05-22,06:15:00,DRY,3.85,9.70,6.5,773.00,6.0
2019-05-22,06:20:00,DRY,4.87,9.73,7.0,773.00,11.6
2019-05-22,06:25:00,DRY,5.00,9.85,7.0,773.00,26.9
2019-05-22,06:30:00,DRY,4.17,9.80,7.0,773.00,43.2
2019-05-22,06:35:00,DRY,5.40,9.85,7.0,773.00,62.0
2019-05-22,06:40:00,DRY,4.30,9.87,7.0,773.00,85.0
2019-05-22,06:45:00,DRY,4.75,10.05,7.0,773.00,108.0
2019-05-22,06:50:00,DRY,5.77,10.27,7.0,773.00,126.3
2019-05-22,06:55:00,DRY,4.95,10.50,6.5,773.00,145.2
2019-05-22,07:00:00,DRY,4.47,10.60,7.0,773.00,164.2
2019-05-22,07:05:00,DRY,4.90,10.60,7.0,773.00,184.3
2019-05-22,07:10:00,DRY,4.70,10.77,7.0,773.00,204.8
2019-05-22,07:15:00,DRY,4.60,10.80,7.0,773.00,224.9
2019-05-22,07:20:00,DRY,5.40,10.83,7.3,773.00,245.9
2019-05-22,07:25:00,DRY,4.05,10.80,7.0,773.00,267.0
2019-05-22,07:30:00,DRY,3.73,10.80,8.0,773.00,288.6
2019-05-22,07:35:00,DRY,3.40,10.35,11.0,773.00,310.4
2019-05-22,07:40:00,DRY,4.63,9.97,12.7,773.00,331.8
2019-05-22,07:45:00,DRY,4.25,9.80,14.5,773.00,353.0
2019-05-22,07:50:00,DRY,6.23,9.90,14.3,773.00,374.3
2019-05-22,07:55:00,DRY,4.85,9.80,15.5,773.00,395.4
2019-05-22,08:00:00,DRY,3.97,9.67,18.0,773.00,416.5
2019-05-22,08:05:00,DRY,5.10,9.60,20.5,773.00,437.9
2019-05-22,08:10:00,DRY,3.77,9.57,19.7,773.00,458.6
2019-05-22,08:15:00,DRY,3.95,9.40,26.0,773.00,479.5
2019-05-22,08:20:00,DRY,4.00,9.40,30.3,773.00,500.6
2019-05-22,08:25:00,DRY,4.60,9.10,34.5,773.00,520.0
2019-05-22,08:30:00,DRY,4.50,9.37,31.7,773.00,541.1
2019-05-22,08:35:00,DRY,3.15,9.60,31.5,773.00,561.2
2019-05-22,08:40:00,DRY,4.10,10.70,22.0,773.00,582.3
2019-05-22,08:45:00,DRY,4.40,10.30,23.0,773.00,601.5
2019-05-22,08:50:00,DRY,4.10,10.27,27.0,773.00,620.7
2019-05-22,08:55:00,DRY,2.60,10.20,31.0,773.00,642.7
2019-05-22,09:00:00,DRY,2.75,11.00,25.5,773.00,660.0
2019-05-22,09:05:00,DRY,2.35,11.55,26.0,773.50,681.2
2019-05-22,09:10:00,DRY,4.30,11.20,21.0,773.00,688.9
2019-05-22,09:15:00,DRY,3.60,11.00,23.5,773.00,651.2
2019-05-22,09:20:00,DRY,2.67,11.13,21.7,773.33,740.9
2019-05-22,09:25:00,DRY,3.10,11.85,21.0,773.00,755.0
2019-05-22,09:30:00,DRY,2.77,12.10,20.0,773.00,769.7
2019-05-22,09:35:00,DRY,1.60,12.55,21.0,773.50,784.4
2019-05-22,09:40:00,DRY,3.47,12.27,18.7,773.33,800.5
2019-05-22,09:45:00,DRY,2.95,12.05,24.0,774.00,817.8
2019-05-22,09:50:00,DRY,2.47,11.60,23.3,774.00,836.3
2019-05-22,09:55:00,DRY,1.45,12.20,19.5,774.00,851.9
2019-05-22,10:00:00,DRY,1.90,13.53,18.3,774.00,867.6
2019-05-22,10:05:00,DRY,3.60,13.20,19.0,774.00,880.7
2019-05-22,10:10:00,DRY,2.60,12.63,25.0,774.00,833.2
2019-05-22,10:15:00,DRY,2.45,12.70,27.5,774.00,927.9
2019-05-22,10:20:00,DRY,3.30,12.60,26.7,774.00,944.4
2019-05-22,10:25:00,DRY,3.30,12.35,31.5,774.00,954.8
2019-05-22,10:30:00,DRY,3.53,12.43,24.3,774.00,965.5
2019-05-22,10:35:00,DRY,2.00,12.10,20.5,774.00,976.0
2019-05-22,10:40:00,DRY,2.97,12.30,24.0,774.00,977.3
2019-05-22,10:45:00,DRY,3.20,12.30,25.5,774.00,986.4
2019-05-22,10:50:00,DRY,2.87,12.17,22.7,774.00,994.9
2019-05-22,10:55:00,DRY,3.30,12.35,25.0,774.00,1006.5
2019-05-22,11:00:00,DRY,3.07,12.67,24.7,774.00,1018.1
2019-05-22,11:05:00,DRY,4.10,12.80,21.5,774.00,1027.9
2019-05-22,11:10:00,DRY,3.43,12.77,23.3,774.00,1037.1
2019-05-22,11:15:00,DRY,3.90,13.30,22.0,774.00,1045.0
2019-05-22,11:20:00,DRY,3.00,13.33,25.0,774.00,1053.8
2019-05-22,11:25:00,DRY,2.00,13.25,25.0,774.00,1062.9
2019-05-22,11:30:00,DRY,3.70,12.87,25.3,774.00,1070.1
2019-05-22,11:35:00,DRY,3.55,13.00,30.0,774.00,1078.2
2019-05-22,11:40:00,DRY,3.00,13.23,32.7,774.00,1085.0
2019-05-22,11:45:00,DRY,1.85,13.65,32.0,774.00,1091.2
2019-05-22,11:50:00,DRY,3.37,13.10,31.0,774.00,1098.5
2019-05-22,11:55:00,DRY,3.45,13.15,35.5,774.00,1105.8
2019-05-22,12:00:00,DRY,3.03,12.90,40.0,774.00,1109.6
2019-05-22,12:05:00,DRY,3.05,13.45,37.0,774.00,1112.1
2019-05-22,12:10:00,DRY,2.67,13.07,35.0,774.00,1117.1
2019-05-22,12:15:00,DRY,3.55,13.50,41.5,774.00,1121.2
2019-05-22,12:20:00,DRY,3.27,13.33,39.0,774.00,1123.2
2019-05-22,12:25:00,DRY,3.90,12.90,38.5,774.00,1126.3
2019-05-22,12:30:00,DRY,2.77,12.67,41.0,774.00,1129.9
2019-05-22,12:35:00,DRY,3.30,12.55,40.5,774.00,1133.9
2019-05-22,12:40:00,DRY,2.37,12.90,42.3,774.00,1134.0
2019-05-22,12:45:00,DRY,2.55,13.20,40.0,774.00,1137.2
2019-05-22,12:50:00,DRY,1.77,13.30,34.0,774.00,1138.7
2019-05-22,12:55:00,DRY,3.55,13.00,32.0,774.00,1141.3
2019-05-22,13:00:00,DRY,2.33,12.53,40.0,774.00,1140.3
2019-05-22,13:05:00,DRY,2.45,13.40,33.5,774.00,1141.0
2019-05-22,13:10:00,DRY,2.63,12.90,39.7,774.00,1140.9
2019-05-22,13:15:00,DRY,2.00,12.95,32.5,774.00,1142.8
2019-05-22,13:20:00,DRY,1.60,13.03,32.3,774.00,1139.7
2019-05-22,13:25:00,DRY,2.75,13.65,34.0,774.00,1141.1
2019-05-22,13:30:00,DRY,4.10,13.50,35.0,774.00,1136.8
2019-05-22,13:35:00,DRY,2.70,13.40,32.0,774.00,1136.8
2019-05-22,13:40:00,DRY,4.23,13.67,29.0,774.00,1134.9
2019-05-22,13:45:00,DRY,3.65,13.60,33.0,774.00,1130.8
2019-05-22,13:50:00,DRY,2.70,12.83,27.3,774.00,1130.3
2019-05-22,13:55:00,DRY,2.40,13.05,29.5,774.00,1125.2
2019-05-22,14:00:00,DRY,2.90,13.53,28.3,774.00,1121.3
2019-05-22,14:05:00,DRY,3.00,13.10,28.5,774.00,1117.0
2019-05-22,14:10:00,DRY,2.00,13.43,33.0,774.00,1115.5
2019-05-22,14:15:00,DRY,3.20,13.45,32.0,774.00,1106.8
2019-05-22,14:20:00,DRY,3.50,13.80,31.7,774.00,1102.4
2019-05-22,14:25:00,DRY,3.35,13.05,30.0,774.00,1095.0
2019-05-22,14:30:00,DRY,3.87,13.17,32.7,774.00,1085.8
2019-05-22,14:35:00,DRY,3.85,13.35,33.0,774.00,1082.0
2019-05-22,14:40:00,DRY,3.20,12.83,29.7,774.00,1073.0
2019-05-22,14:45:00,DRY,3.25,12.20,29.5,774.00,1065.5
2019-05-22,14:50:00,DRY,2.90,11.93,33.7,774.00,1055.5
2019-05-22,14:55:00,DRY,3.00,12.35,32.0,774.00,1044.4
2019-05-22,15:00:00,DRY,3.37,12.50,35.0,774.00,1036.1
2019-05-22,15:05:00,DRY,3.75,12.30,37.5,774.00,1025.7
2019-05-22,15:10:00,DRY,4.50,12.27,38.7,774.00,1014.3
2019-05-22,15:15:00,DRY,6.70,12.65,36.0,774.00,1003.5
2019-05-22,15:20:00,DRY,4.17,12.47,33.3,774.00,994.0
2019-05-22,15:25:00,DRY,3.05,12.05,34.5,774.00,980.5
2019-05-22,15:30:00,DRY,3.73,12.67,28.7,774.00,967.9
2019-05-22,15:35:00,DRY,2.70,12.45,29.5,774.00,956.0
2019-05-22,15:40:00,DRY,4.00,12.00,27.7,774.00,942.5
2019-05-22,15:45:00,DRY,3.15,12.15,27.5,774.00,929.0
2019-05-22,15:50:00,DRY,4.33,12.40,28.0,774.00,917.1
2019-05-22,15:55:00,DRY,4.40,12.75,29.5,774.00,902.5
2019-05-22,16:00:00,DRY,3.33,12.33,29.3,774.00,888.5
2019-05-22,16:05:00,DRY,2.85,12.45,32.5,774.00,872.6
2019-05-22,16:10:00,DRY,2.27,12.77,31.3,774.00,857.6
2019-05-22,16:15:00,DRY,4.15,12.30,33.0,774.00,841.8
2019-05-22,16:20:00,DRY,3.17,12.23,36.3,774.00,827.4
2019-05-22,16:25:00,DRY,4.85,12.30,33.5,774.00,810.4
2019-05-22,16:30:00,DRY,4.40,11.90,33.3,774.00,795.3
2019-05-22,16:35:00,DRY,2.60,11.35,34.0,774.00,776.4
2019-05-22,16:40:00,DRY,4.30,11.80,31.0,774.00,760.4
2019-05-22,16:45:00,DRY,3.60,12.10,29.5,774.00,741.8
2019-05-22,16:50:00,DRY,3.77,11.53,32.7,774.00,725.3
2019-05-22,16:55:00,DRY,4.60,11.85,34.0,774.00,707.9
2019-05-22,17:00:00,DRY,3.53,12.13,33.0,774.00,689.4
2019-05-22,17:05:00,DRY,3.25,12.20,29.5,774.00,671.5
2019-05-22,17:10:00,DRY,2.90,12.03,33.3,774.00,651.6
2019-05-22,17:15:00,DRY,4.70,12.10,34.0,774.00,633.4
2019-05-22,17:20:00,DRY,4.10,11.67,36.0,774.00,613.7
2019-05-22,17:25:00,DRY,4.70,11.40,37.0,774.00,596.0
2019-05-22,17:30:00,DRY,1.90,11.97,28.0,774.00,574.7
2019-05-22,17:35:00,DRY,2.40,12.20,30.0,774.00,559.3
2019-05-22,17:40:00,DRY,3.23,12.13,27.7,774.00,535.6
2019-05-22,17:45:00,DRY,3.55,12.25,25.0,774.00,514.9
2019-05-22,17:50:00,DRY,4.20,12.27,28.7,774.00,494.1
2019-05-22,17:55:00,DRY,4.70,12.20,26.5,774.00,474.0
2019-05-22,18:00:00,DRY,5.07,12.30,26.3,774.00,453.6
2019-05-22,18:05:00,DRY,3.60,12.20,28.5,774.00,431.6
2019-05-22,18:10:00,DRY,4.47,12.10,28.3,774.00,402.8
2019-05-22,18:15:00,DRY,3.90,11.85,28.0,774.00,390.6
2019-05-22,18:20:00,DRY,5.97,11.73,27.0,774.00,368.4
2019-05-22,18:25:00,DRY,5.30,11.75,25.0,774.00,346.7
2019-05-22,18:30:00,DRY,4.37,11.70,28.0,774.00,326.7
2019-05-22,18:35:00,DRY,3.90,11.25,34.5,774.00,305.0
2019-05-22,18:40:00,DRY,5.80,11.10,33.0,774.00,283.7
2019-05-22,18:45:00,DRY,4.55,11.25,32.0,774.00,262.6
2019-05-22,18:50:00,DRY,5.23,11.23,30.3,774.00,241.5
2019-05-22,18:55:00,DRY,2.40,11.00,30.0,774.00,226.2
2019-05-22,19:00:00,DRY,4.80,10.67,37.7,774.00,201.4
2019-05-22,19:05:00,DRY,4.70,9.90,42.5,774.00,181.2
2019-05-22,19:10:00,DRY,5.27,9.53,45.0,774.00,162.2
2019-05-22,19:15:00,DRY,4.10,9.50,45.0,774.00,148.1
2019-05-22,19:20:00,DRY,4.90,9.13,44.7,774.00,125.1
2019-05-22,19:25:00,DRY,4.25,8.75,45.0,774.00,100.8
2019-05-22,19:30:00,DRY,6.17,8.80,36.7,774.00,78.2
2019-05-22,19:35:00,DRY,4.60,8.65,39.5,774.00,58.1
2019-05-22,19:40:00,DRY,6.37,8.33,46.3,774.00,41.2
2019-05-22,19:45:00,DRY,5.40,8.25,47.0,774.00,27.8
2019-05-22,19:50:00,DRY,7.13,8.07,49.0,774.00,17.7
2019-05-22,19:55:00,DRY,5.15,8.00,50.5,774.00,12.5
2019-05-22,20:00:00,DRY,5.87,7.97,51.0,774.00,8.4
2019-05-22,20:05:00,DRY,5.95,7.90,53.5,774.00,5.2
2019-05-22,20:10:00,DRY,6.20,7.73,52.3,774.00,3.2
2019-05-22,20:15:00,DRY,4.85,7.65,52.5,774.00,1.7
2019-05-22,20:20:00,DRY,5.30,7.50,51.3,774.00,1.8
2019-05-22,20:25:00,DRY,5.75,7.40,53.0,774.00,0.7
2019-05-22,20:30:00,DRY,4.70,7.30,51.3,774.00,1.3
2019-05-22,20:35:00,DRY,6.40,7.30,53.5,774.00,1.4
2019-05-22,20:40:00,DRY,6.17,7.20,53.0,774.00,1.4
2019-05-22,20:45:00,DRY,7.20,7.35,56.5,774.00,1.4
2019-05-22,20:50:00,DRY,7.07,7.10,53.7,774.00,1.2
2019-05-22,20:55:00,DRY,7.70,7.05,55.5,775.00,1.2
2019-05-22,21:00:00,DRY,6.20,7.07,56.7,774.33,1.3
2019-05-22,21:05:00,DRY,8.90,7.00,57.0,774.50,1.5
2019-05-22,21:10:00,DRY,7.60,7.10,58.0,774.33,1.8
2019-05-22,21:15:00,DRY,8.10,7.10,57.0,774.50,1.2
2019-05-22,21:20:00,DRY,8.33,7.17,57.0,774.33,1.1
2019-05-22,21:25:00,DRY,7.60,7.20,56.5,775.00,1.1
2019-05-22,21:30:00,DRY,6.90,7.33,55.7,775.00,1.1
2019-05-22,21:35:00,DRY,6.35,7.30,55.0,775.00,1.0
2019-05-22,21:40:00,DRY,6.57,7.43,55.0,775.00,1.0
2019-05-22,21:45:00,DRY,7.15,7.40,55.0,775.00,1.2
2019-05-22,21:50:00,DRY,5.87,7.33,56.0,775.00,1.4
2019-05-22,21:55:00,DRY,7.50,7.30,56.5,775.00,1.1
2019-05-22,22:00:00,DRY,6.93,7.23,56.3,775.00,1.2
2019-05-22,22:05:00,DRY,6.60,7.25,56.5,775.00,1.1
2019-05-22,22:10:00,DRY,6.20,7.20,58.7,775.00,0.9
2019-05-22,22:15:00,DRY,8.65,7.15,57.0,775.00,1.5
2019-05-22,22:20:00,DRY,8.20,7.13,58.3,775.00,0.9
2019-05-22,22:25:00,DRY,9.45,7.15,55.0,775.00,1.4
2019-05-22,22:30:00,DRY,7.37,7.03,53.7,775.00,1.0
2019-05-22,22:35:00,DRY,6.80,7.10,54.5,775.00,1.0
2019-05-22,22:40:00,DRY,7.73,7.13,55.7,775.00,1.5
2019-05-22,22:45:00,DRY,7.90,7.00,55.0,775.00,1.6
2019-05-22,22:50:00,DRY,8.50,7.10,54.3,775.00,1.1
2019-05-22,22:55:00,DRY,8.65,7.05,54.5,775.00,1.2
2019-05-22,23:00:00,DRY,8.13,7.00,54.7,775.00,1.2
2019-05-22,23:05:00,DRY,7.10,7.15,56.5,775.00,1.1
2019-05-22,23:10:00,DRY,8.57,7.03,55.7,775.00,1.1
2019-05-22,23:15:00,DRY,8.50,7.00,56.5,775.00,1.4
2019-05-22,23:20:00,DRY,6.77,7.07,55.0,775.00,1.2
2019-05-22,23:25:00,DRY,8.30,7.00,55.5,775.00,1.1
2019-05-22,23:30:00,DRY,7.17,7.10,55.3,775.00,1.5
2019-05-22,23:35:00,DRY,6.80,7.00,56.0,775.00,1.1
2019-05-22,23:40:00,DRY,6.33,6.93,56.7,775.00,0.5
2019-05-22,23:45:00,DRY,8.05,6.95,56.5,775.00,1.1
2019-05-22,23:50:00,DRY,7.53,7.10,55.3,775.00,1.0
2019-05-22,23:55:00,DRY,6.85,7.10,54.5,775.00,1.2
2019-05-23,00:00:00,DRY,5.67,7.07,55.0,775.00,1.2
2019-05-23,00:05:00,DRY,5.65,7.00,53.0,775.00,1.2
2019-05-23,00:10:00,DRY,6.67,7.13,50.3,775.00,1.3
2019-05-23,00:15:00,DRY,7.30,7.20,47.5,775.00,1.2
2019-05-23,00:20:00,DRY,6.03,7.10,46.0,775.00,1.0
2019-05-23,00:25:00,DRY,6.25,7.05,44.5,775.00,1.0
2019-05-23,00:30:00,DRY,5.73,7.17,42.3,775.00,1.2
2019-05-23,00:35:00,DRY,6.75,7.25,41.5,775.00,1.3
2019-05-23,00:40:00,DRY,6.80,7.17,41.0,775.00,1.3
2019-05-23,00:45:00,DRY,5.70,7.15,40.5,774.50,1.2
2019-05-23,00:50:00,DRY,6.33,7.33,37.3,775.00,1.3
2019-05-23,00:55:00,DRY,5.55,7.40,35.0,774.00,1.3
2019-05-23,01:00:00,DRY,7.30,7.63,31.3,774.00,0.8
2019-05-23,01:05:00,DRY,7.90,7.60,29.0,774.00,1.1
2019-05-23,01:10:00,DRY,7.10,7.50,29.3,774.00,1.1
2019-05-23,01:15:00,DRY,5.45,7.45,27.0,774.00,1.2
2019-05-23,01:20:00,DRY,5.50,7.43,26.3,774.00,1.1
2019-05-23,01:25:00,DRY,4.40,7.45,23.0,774.00,1.4
2019-05-23,01:30:00,DRY,7.90,7.73,19.0,774.00,1.0
2019-05-23,01:35:00,DRY,7.10,8.40,15.0,774.00,0.8
2019-05-23,01:40:00,DRY,7.10,8.93,14.7,774.00,1.3
2019-05-23,01:45:00,DRY,6.50,8.55,13.5,774.00,1.3
2019-05-23,01:50:00,DRY,6.97,8.80,12.3,774.00,1.3
2019-05-23,01:55:00,DRY,8.45,8.85,14.5,774.00,1.2
2019-05-23,02:00:00,DRY,7.07,9.40,14.0,774.00,1.2
2019-05-23,02:05:00,DRY,4.50,9.85,21.0,774.00,1.1
2019-05-23,02:10:00,DRY,5.87,10.20,16.7,774.00,1.0
2019-05-23,02:15:00,DRY,4.25,10.50,17.0,774.00,1.2
2019-05-23,02:20:00,DRY,3.10,10.60,16.7,774.00,1.3
2019-05-23,02:25:00,DRY,4.25,10.65,15.0,774.00,1.8
2019-05-23,02:30:00,DRY,4.00,10.90,14.0,774.00,1.2
2019-05-23,02:35:00,DRY,3.25,10.55,14.5,774.00,0.9
2019-05-23,02:40:00,DRY,3.57,10.57,15.0,774.00,1.6
2019-05-23,02:45:00,DRY,3.30,10.65,15.5,774.00,1.1
2019-05-23,02:50:00,DRY,3.60,10.73,14.3,774.00,1.0
2019-05-23,02:55:00,DRY,3.50,10.70,14.0,774.00,1.4
2019-05-23,03:00:00,DRY,5.07,10.83,13.3,774.00,0.8
2019-05-23,03:05:00,DRY,3.65,10.85,12.5,774.00,1.4
2019-05-23,03:10:00,DRY,4.27,10.93,12.7,774.00,1.4
2019-05-23,03:15:00,DRY,3.70,11.05,12.0,774.00,1.4
2019-05-23,03:20:00,DRY,3.23,11.07,11.3,774.00,1.2
2019-05-23,03:25:00,DRY,5.15,11.20,12.0,774.00,0.7
2019-05-23,03:30:00,DRY,6.83,11.37,12.7,774.00,0.9
2019-05-23,03:35:00,DRY,5.55,11.40,12.0,774.00,1.2
2019-05-23,03:40:00,DRY,6.13,11.37,13.0,774.00,1.3
2019-05-23,03:45:00,DRY,6.90,11.35,13.0,774.00,1.1
2019-05-23,03:50:00,DRY,6.43,11.20,12.3,774.00,1.1
2019-05-23,03:55:00,DRY,6.30,11.25,10.0,774.00,1.1
2019-05-23,04:00:00,DRY,4.63,11.03,9.0,773.67,1.3
2019-05-23,04:05:00,DRY,6.20,11.00,8.5,774.00,1.0
2019-05-23,04:10:00,DRY,5.97,11.17,8.3,773.67,1.2
2019-05-23,04:15:00,DRY,5.50,11.20,9.0,773.50,0.8
2019-05-23,04:20:00,DRY,4.50,11.30,9.3,773.00,1.6
2019-05-23,04:25:00,DRY,3.85,11.20,10.0,773.00,0.9
2019-05-23,04:30:00,DRY,5.43,11.03,11.0,773.33,1.5
2019-05-23,04:35:00,DRY,4.60,11.20,9.5,773.00,1.5
2019-05-23,04:40:00,DRY,6.03,11.00,8.7,773.33,1.4
2019-05-23,04:45:00,DRY,7.35,11.10,10.0,773.00,1.1
2019-05-23,04:50:00,DRY,7.13,11.23,11.0,773.00,1.2
2019-05-23,04:55:00,DRY,5.50,11.10,11.0,773.50,1.4
2019-05-23,05:00:00,DRY,8.00,11.40,11.0,773.50,1.1
2019-05-23,05:05:00,DRY,7.40,11.75,10.0,773.00,1.4
2019-05-23,05:10:00,DRY,6.47,11.60,10.0,773.00,1.4
2019-05-23,05:15:00,DRY,7.55,11.85,9.5,773.00,1.5
2019-05-23,05:20:00,DRY,5.90,11.90,9.0,773.00,1.0
2019-05-23,05:25:00,DRY,6.45,11.65,9.0,773.00,1.5
2019-05-23,05:30:00,DRY,5.50,11.77,9.0,773.00,1.2
2019-05-23,05:35:00,DRY,5.35,11.75,7.5,773.00,1.2
2019-05-23,05:40:00,DRY,5.63,11.63,7.7,773.33,1.2
2019-05-23,05:45:00,DRY,4.40,11.55,7.0,773.00,1.0
2019-05-23,05:50:00,DRY,5.80,11.83,7.3,773.67,1.2
2019-05-23,05:55:00,DRY,5.25,11.95,7.0,773.50,1.2
2019-05-23,06:00:00,DRY,4.80,11.70,7.3,774.00,1.8
2019-05-23,06:05:00,DRY,5.10,11.50,7.0,774.00,2.8
2019-05-23,06:10:00,DRY,3.93,11.33,6.3,774.00,4.7
2019-05-23,06:15:00,DRY,7.15,11.60,6.0,774.00,6.2
2019-05-23,06:20:00,DRY,6.17,11.63,6.3,774.00,11.4
2019-05-23,06:25:00,DRY,4.35,11.75,7.0,774.00,26.6
2019-05-23,06:30:00,DRY,4.60,11.70,7.0,774.00,42.5
2019-05-23,06:35:00,DRY,6.40,11.80,7.0,774.00,61.8
2019-05-23,06:40:00,DRY,5.63,11.80,7.0,774.00,84.7
2019-05-23,06:45:00,DRY,4.75,11.90,7.0,774.00,106.8
2019-05-23,06:50:00,DRY,6.07,12.00,7.0,774.00,125.7
2019-05-23,06:55:00,DRY,6.10,12.10,7.0,774.00,144.1
2019-05-23,07:00:00,DRY,6.70,12.17,7.0,774.00,163.0
2019-05-23,07:05:00,DRY,5.20,12.15,7.0,774.00,182.1
2019-05-23,07:10:00,DRY,7.23,12.20,7.0,774.00,203.2
2019-05-23,07:15:00,DRY,5.05,12.20,8.5,774.00,224.7
2019-05-23,07:20:00,DRY,6.27,12.47,8.0,774.00,245.4
2019-05-23,07:25:00,DRY,4.10,12.65,8.0,774.00,266.3
2019-05-23,07:30:00,DRY,5.87,12.70,8.3,774.00,288.1
2019-05-23,07:35:00,DRY,2.85,12.70,8.5,774.00,309.7
2019-05-23,07:40:00,DRY,6.47,12.70,7.7,774.00,331.0
2019-05-23,07:45:00,DRY,4.75,12.70,7.5,774.00,352.3
2019-05-23,07:50:00,DRY,7.20,12.63,7.3,774.00,373.9
2019-05-23,07:55:00,DRY,4.45,12.75,8.5,774.00,394.7
2019-05-23,08:00:00,DRY,4.67,12.57,9.3,774.00,416.8
2019-05-23,08:05:00,DRY,3.55,12.70,9.0,774.00,437.7
2019-05-23,08:10:00,DRY,6.40,12.50,10.0,774.00,459.1
2019-05-23,08:15:00,DRY,6.80,12.60,11.0,774.00,480.5
2019-05-23,08:20:00,DRY,6.53,12.63,15.0,774.00,500.2
2019-05-23,08:25:00,DRY,5.95,12.55,18.0,774.00,519.9
2019-05-23,08:30:00,DRY,5.67,13.03,18.0,774.00,541.0
2019-05-23,08:35:00,DRY,4.05,12.85,19.0,774.00,560.3
2019-05-23,08:40:00,DRY,6.57,13.07,19.0,774.33,581.5
2019-05-23,08:45:00,DRY,6.20,13.15,19.0,775.00,600.6
2019-05-23,08:50:00,DRY,6.70,13.03,18.7,774.67,619.7
2019-05-23,08:55:00,DRY,4.80,13.25,18.5,774.00,638.6
2019-05-23,09:00:00,DRY,5.73,13.40,18.7,775.00,657.5
2019-05-23,09:05:00,DRY,4.70,13.40,18.0,774.50,676.1
2019-05-23,09:10:00,DRY,4.87,13.40,16.7,775.00,695.5
2019-05-23,09:15:00,DRY,6.30,13.50,15.5,775.00,713.6
2019-05-23,09:20:00,DRY,5.27,13.47,17.7,775.00,731.6
2019-05-23,09:25:00,DRY,7.50,13.20,19.5,775.00,750.8
2019-05-23,09:30:00,DRY,3.90,13.47,18.0,775.00,766.8
2019-05-23,09:35:00,DRY,5.40,13.50,20.5,775.00,783.5
2019-05-23,09:40:00,DRY,4.93,13.37,21.3,775.00,800.7
2019-05-23,09:45:00,DRY,3.95,13.55,20.0,775.00,817.7
2019-05-23,09:50:00,DRY,4.90,13.77,17.7,775.00,835.8
2019-05-23,09:55:00,DRY,6.55,13.80,17.0,775.00,850.2
2019-05-23,10:00:00,DRY,3.75,14.00,17.5,775.00,863.8
2019-05-23,10:05:00,DRY,5.20,14.00,18.0,775.00,878.1
2019-05-23,10:10:00,DRY,6.97,13.73,18.3,775.00,892.5
2019-05-23,10:15:00,DRY,7.45,13.80,18.0,775.00,906.9
2019-05-23,10:20:00,DRY,3.60,13.90,20.7,775.00,920.0
2019-05-23,10:25:00,DRY,6.15,13.95,20.5,775.00,934.1
2019-05-23,10:30:00,DRY,4.70,13.70,20.7,775.00,946.3
2019-05-23,10:35:00,DRY,5.65,14.05,19.5,775.00,960.5
2019-05-23,10:40:00,DRY,4.83,13.87,21.7,775.00,972.1
2019-05-23,10:45:00,DRY,5.65,13.50,21.5,775.00,985.1
2019-05-23,10:50:00,DRY,8.33,13.63,21.0,775.00,995.8
2019-05-23,10:55:00,DRY,5.75,13.35,20.0,775.00,1007.1
2019-05-23,11:00:00,DRY,4.63,13.43,21.0,775.00,1017.4
2019-05-23,11:05:00,DRY,5.55,13.25,20.5,775.00,1027.2
2019-05-23,11:10:00,DRY,5.07,13.60,19.7,775.00,1037.4
2019-05-23,11:15:00,DRY,5.80,13.90,15.5,775.00,1047.2
2019-05-23,11:20:00,DRY,3.67,14.13,16.3,775.00,1056.0
2019-05-23,11:25:00,DRY,5.05,14.05,17.5,775.00,1064.6
2019-05-23,11:30:00,DRY,4.53,14.17,16.7,775.00,1073.6
2019-05-23,11:35:00,DRY,6.20,14.25,17.0,775.00,1079.9
2019-05-23,11:40:00,DRY,3.87,14.30,17.7,775.00,1087.8
2019-05-23,11:45:00,DRY,5.75,14.20,17.5,775.00,1093.5
2019-05-23,11:50:00,DRY,7.70,14.30,16.0,775.00,1099.8
2019-05-23,11:55:00,DRY,6.20,14.25,17.5,775.00,1106.5
2019-05-23,12:00:00,DRY,5.80,14.43,15.0,775.00,1112.3
2019-05-23,12:05:00,DRY,6.00,14.35,13.0,775.00,1117.6
2019-05-23,12:10:00,DRY,4.67,13.93,15.3,775.00,1121.0
2019-05-23,12:15:00,DRY,5.30,14.15,18.0,775.00,1124.0
2019-05-23,12:20:00,DRY,4.87,14.13,16.3,775.00,1126.4
2019-05-23,12:25:00,DRY,4.10,14.55,17.0,775.00,1131.2
2019-05-23,12:30:00,DRY,6.43,14.73,12.3,775.00,1133.7
2019-05-23,12:35:00,DRY,5.85,14.60,12.5,775.00,1136.0
2019-05-23,12:40:00,DRY,5.43,14.43,15.7,775.00,1137.0
2019-05-23,12:45:00,DRY,5.25,14.40,14.0,775.00,1139.0
2019-05-23,12:50:00,DRY,5.37,14.37,15.3,775.00,1140.4
2019-05-23,12:55:00,DRY,6.15,14.45,16.0,775.00,1139.5
2019-05-23,13:00:00,DRY,4.73,14.53,11.0,775.00,1141.5
2019-05-23,13:05:00,DRY,5.55,13.75,11.5,775.00,1142.0
2019-05-23,13:10:00,DRY,4.47,14.33,13.0,775.00,1143.1
2019-05-23,13:15:00,DRY,4.50,14.55,11.0,775.00,1140.8
2019-05-23,13:20:00,DRY,5.03,14.93,12.3,775.00,1141.7
2019-05-23,13:25:00,DRY,5.50,14.90,13.0,775.00,1143.5
2019-05-23,13:30:00,DRY,2.00,14.60,12.0,775.00,1141.3
2019-05-23,13:35:00,DRY,8.70,14.40,14.0,775.00,1139.0
2019-05-23,13:40:00,DRY,3.95,14.25,14.0,775.00,1136.8
2019-05-23,13:45:00,DRY,3.45,14.60,13.5,775.00,1133.6
2019-05-23,13:50:00,DRY,5.00,14.50,13.7,775.00,1131.4
2019-05-23,13:55:00,DRY,4.30,14.75,13.0,775.00,1127.8
2019-05-23,14:00:00,DRY,5.27,14.50,12.3,775.00,1123.1
2019-05-23,14:05:00,DRY,5.70,14.70,12.0,775.00,1119.2
2019-05-23,14:10:00,DRY,3.10,15.10,11.5,775.00,1114.8
2019-05-23,14:15:00,DRY,3.55,14.85,12.5,775.00,1109.5
2019-05-23,14:20:00,DRY,3.57,14.73,13.0,775.00,1104.9
2019-05-23,14:25:00,DRY,1.50,14.55,14.0,775.00,1098.0
2019-05-23,14:30:00,DRY,2.90,14.40,12.7,775.00,1090.4
2019-05-23,14:35:00,DRY,5.50,14.75,11.5,775.00,1085.1
2019-05-23,14:40:00,DRY,4.17,14.47,11.7,775.00,1075.7
2019-05-23,14:45:00,DRY,5.00,14.50,10.5,775.00,1067.0
2019-05-23,14:50:00,DRY,4.27,15.00,12.0,775.00,1059.5
2019-05-23,14:55:00,DRY,3.10,14.40,12.5,775.00,1051.5
2019-05-23,15:00:00,DRY,4.03,15.17,12.3,775.00,1041.4
2019-05-23,15:05:00,DRY,3.55,15.35,11.5,775.00,1033.4
2019-05-23,15:10:00,DRY,3.07,15.40,11.7,775.00,1022.2
2019-05-23,15:15:00,DRY,3.70,14.85,13.0,775.00,1012.5
2019-05-23,15:20:00,DRY,3.87,14.97,11.3,775.00,1001.1
2019-05-23,15:25:00,DRY,5.20,14.85,12.0,775.00,988.6
2019-05-23,15:30:00,DRY,6.77,14.80,11.7,775.00,975.7
2019-05-23,15:35:00,DRY,3.15,14.30,14.0,775.00,963.5
2019-05-23,15:40:00,DRY,4.80,15.07,13.0,775.00,952.7
2019-05-23,15:45:00,DRY,4.55,14.90,14.0,775.00,938.2
2019-05-23,15:50:00,DRY,3.33,15.30,13.0,775.00,924.9
2019-05-23,15:55:00,DRY,3.95,14.90,15.5,775.00,910.2
2019-05-23,16:00:00,DRY,4.47,15.20,12.7,775.00,895.9
2019-05-23,16:05:00,DRY,3.20,14.90,13.5,775.00,880.8
2019-05-23,16:10:00,DRY,3.53,14.40,12.3,775.00,865.7
2019-05-23,16:15:00,DRY,2.35,14.70,10.5,775.00,848.7
2019-05-23,16:20:00,DRY,5.43,15.07,12.0,775.00,832.6
2019-05-23,16:25:00,DRY,4.60,15.20,12.0,775.00,817.5
2019-05-23,16:30:00,DRY,5.63,15.00,10.7,775.00,800.0
2019-05-23,16:35:00,DRY,4.65,14.95,9.5,775.00,783.6
2019-05-23,16:40:00,DRY,5.77,14.93,9.7,775.00,765.8
2019-05-23,16:45:00,DRY,4.10,15.55,9.5,775.00,748.0
2019-05-23,16:50:00,DRY,3.97,15.00,8.7,775.00,730.2
2019-05-23,16:55:00,DRY,3.35,14.75,9.5,775.00,713.0